Hourly Data Report for October 06, 2016

All times are specified in Local Standard Time (LST). Add 1 hour to adjust for Daylight Saving Time where and when it is observed.

GRISE FIORD CLIMATE
NUNAVUT

76°25'22.040" N
82°54'08.020" W
44.50 m
2402351
71971
NGC

Download Data

Hourly Data (October 2016)
Hourly Data Report for October 6, 2016
Temp Definition
°C
Dew Point Temp Definition
°C
Rel Hum Definition
%
Wind Dir Definition
10's deg

Wind Spd Definition
km/h
Visibility Definition
km
Stn Press Definition
kPa
Hmdx Definition


Wind Chill Definition


Weather Definition


TIME
00:00 -5.6 -7.9 84 12 7   100.64   -9 LegendNANA
01:00 -5.6 -7.7 85 23 2   100.60   -7 LegendNANA
02:00 -4.7 -6.8 85 12 8   100.59   -8 LegendNANA
03:00 -4.3 -6.9 82 9 6   100.55   -7 LegendNANA
04:00 -5.9 -8.0 86 8 5   100.55   -8 LegendNANA
05:00 -4.1 -7.0 81 11 8   100.50   -8 LegendNANA
06:00 -4.2 -6.3 85 14 3   100.46   -5 LegendNANA
07:00 -4.6 -6.3 88 4 3   100.43   -6 LegendNANA
08:00 -3.9 -6.0 85 0 1   100.38   -4 LegendNANA
09:00 -4.3 -6.5 85 0 1   100.35   -5 LegendNANA
10:00 -4.4 -6.2 87 6 3   100.34   -6 LegendNANA
11:00 -3.2 -5.8 82 3 4   100.29   -5 LegendNANA
12:00 -3.0 -6.1 79 12 4   100.29   -5 LegendNANA
13:00 -2.5 -7.2 70 9 5   100.26   -4 LegendNANA
14:00 -2.4 -5.7 78 6 12   100.28   -7 LegendNANA
15:00 -2.1 -4.9 81 17 5   100.32   -4 LegendNANA
16:00 -2.2 -3.5 90 24 9   100.33   -6 LegendNANA
17:00 -2.2 -3.4 91 23 9   100.32   -6 LegendNANA
18:00 -2.3 -3.3 93 24 14   100.33   -7 LegendNANA
19:00 -2.4 -3.2 95 25 7   100.33   -5 LegendNANA
20:00 -2.5 -3.4 93 25 2   100.33   -3 LegendNANA
21:00 -2.6 -3.3 95 21 4   100.34   -4 LegendNANA
22:00 -2.4 -3.4 93 24 12   100.33   -7 LegendNANA
23:00 -3.0 -3.3 98 24 15   100.32   -8 LegendNANA

Notes on Data Quality.

Legend

  • E = Estimated
  • M = Missing
  • NA = Not Available
  • ‡ = Partner data that is not subject to review by the National Climate Archives
Date modified: